• Processing (Info)

  • MPEC 2001-Q36 : 2001 QF6

    The following Minor Planet Electronic Circular may be linked-to from your own Web pages, but must not otherwise be redistributed electronically.

    A form allowing access to any MPEC is at the bottom of this page.


    Read MPEC 2001-Q35 Read MPEC 2001-Q37


    M.P.E.C. 2001-Q36                                Issued 2001 Aug. 24, 19:30 UT
    
         The Minor Planet Electronic Circulars contain information on unusual
             minor planets and routine data on comets.  They are published
       on behalf of Commission 20 of the International Astronomical Union by the
              Minor Planet Center, Smithsonian Astrophysical Observatory,
                              Cambridge, MA 02138, U.S.A.
    
                 Prepared using the Tamkin Foundation Computer Network
    
                                  MPC@CFA.HARVARD.EDU
              URL http://cfa-www.harvard.edu/iau/mpc.html  ISSN 1523-6714
    
                                       2001 QF6
    
    Observations:
         K01Q06F  C2001 08 15.57170 22 08 20.98 -13 26 29.9          19.9        608
         K01Q06F  C2001 08 15.58275 22 08 20.67 -13 26 38.5          20.1        608
         K01Q06F  C2001 08 15.59360 22 08 20.32 -13 26 47.4          19.9        608
         K01Q06F* C2001 08 16.27310 22 08 01.74 -13 36 01.0          18.8        704
         K01Q06F  C2001 08 16.28539 22 08 01.32 -13 36 11.0          18.9        704
         K01Q06F  C2001 08 16.29775 22 08 00.96 -13 36 21.1          18.9        704
         K01Q06F  C2001 08 16.32223 22 08 00.25 -13 36 40.6          18.7        704
         K01Q06F  C2001 08 18.28590 22 07 04.10 -14 03 34.7          18.0        704
         K01Q06F  C2001 08 18.29830 22 07 03.73 -14 03 44.1          18.7        704
         K01Q06F  C2001 08 18.31076 22 07 03.41 -14 03 54.5          18.7        704
         K01Q06F  C2001 08 18.32329 22 07 03.00 -14 04 05.2          18.8        704
         K01Q06F  C2001 08 19.28793 22 06 34.68 -14 17 25.5          19.1        704
         K01Q06F  C2001 08 19.31380 22 06 33.89 -14 17 47.5          19.1        704
         K01Q06F  C2001 08 19.32633 22 06 33.55 -14 17 56.8          19.4        704
         K01Q06F  C2001 08 23.26846 22 04 35.32 -15 12 59.0          18.6        704
         K01Q06F  C2001 08 23.28103 22 04 34.88 -15 13 09.4          18.7        704
         K01Q06F  C2001 08 23.29362 22 04 34.48 -15 13 19.7          19.0        704
         K01Q06F  C2001 08 23.30632 22 04 34.09 -15 13 30.2          18.8        704
         K01Q06F  C2001 08 23.31890 22 04 33.71 -15 13 41.2          18.9        704
         K01Q06F 1C2001 08 23.50165 22 04 28.29 -15 16 10.3          18.9 R      413
         K01Q06F 1C2001 08 23.50369 22 04 28.25 -15 16 12.0          18.8 R      413
         K01Q06F 1C2001 08 23.50574 22 04 28.19 -15 16 13.9          18.7 R      413
         K01Q06F  C2001 08 23.73701 22 04 20.63 -15 19 29.2          18.5 R      422
         K01Q06F  C2001 08 23.73795 22 04 20.67 -15 19 29.1          18.1 R      422
         K01Q06F  C2001 08 23.73955 22 04 20.65 -15 19 30.6          18.0 R      422
         K01Q06F  C2001 08 23.74046 22 04 20.56 -15 19 31.7          18.2 R      422
         K01Q06F 1C2001 08 23.75317 22 04 20.20 -15 19 42.0          18.7 R      413
         K01Q06F 1C2001 08 23.75475 22 04 20.14 -15 19 43.4          18.6 R      413
         K01Q06F 1C2001 08 23.75634 22 04 20.11 -15 19 44.6          18.5 R      413
         K01Q06F  C2001 08 23.93625 22 04 14.93 -15 22 23.1                      557
         K01Q06F  C2001 08 23.94183 22 04 14.70 -15 22 27.1                      557
         K01Q06F  C2001 08 24.01395 22 04 12.39 -15 23 28.9          17.2 R      046
         K01Q06F  C2001 08 24.01579 22 04 12.35 -15 23 30.0                      046
         K01Q06F  C2001 08 24.01738 22 04 12.27 -15 23 29.4                      046
    
    Observer details:
    046 Klet.  Observers J. Ticha, M. Tichy, M. Kocer.  0.57-m f/5.2
        reflector + CCD.
    413 Siding Spring.  Observer R. H. McNaught.  1.0-m f/8 reflector + CCD.
        Stellar appearance.
    422 Loomberah.  Observer G. J. Garradd.  0.45-m f/5.4 reflector + CCD.
    557 Ondrejov.  Observers P. Pravec, P. Kusnirak.  0.65-m f/3.6
        reflector + CCD.
    608 Haleakala-NEAT/MSSS.  Observers E. F. Helin, S. Pravdo, K. Lawrence,
        P. Kervin, R. Maeda, J. Africano, M. Hicks.  1.2-m reflector + CCD.
    704 Lincoln Laboratory ETS, New Mexico.  Observers M. Blythe, F. Shelly,
        M. Bezpalko, R. Huber, L. Manguso, S. Adams.  Measurers J. Stuart,
        R. Sayer, J. B. Evans, H. Viggh.  1.0-m f/2.15 reflector + CCD.
    
    Orbital elements:
    2001 QF6
    Epoch 2001 Aug. 19.0 TT = JDT 2452140.5                 Spahr
    M 352.55925              (2000.0)            P               Q
    n   0.04366565     Peri.  240.36930     +0.85884877     -0.44756987
    a   7.9868604      Node   144.45534     +0.47076547     +0.88137375
    e   0.7196224      Incl.   25.37408     -0.20188775     +0.15120032
    P  22.6            H   14.8           G   0.15
    From 34 observations 2001 Aug. 15-24.
    
    Ephemeris:
    2001 QF6                 a,e,i = 7.99, 0.72, 25                  q = 2.2393
    Date    TT    R. A. (2000) Decl.     Delta      r     Elong.  Phase     V
    2001 08 19    22 06.72   -14 13.4    1.751    2.762   176.4     1.3    18.4
    2001 08 29    22 01.66   -16 33.6    1.709    2.710   170.1     3.7    18.5
    2001 09 08    21 56.79   -18 51.0    1.696    2.659   158.6     7.9    18.6
    2001 09 18    21 52.95   -20 56.5    1.708    2.611   147.3    12.0    18.8
    2001 09 28    21 50.93   -22 42.7    1.743    2.565   136.5    15.6    18.9
    2001 10 08    21 51.28   -24 05.7    1.797    2.521   126.3    18.6    19.0
    2001 10 18    21 54.29   -25 03.9    1.864    2.479   116.8    21.0    19.2
    2001 10 28    22 00.03   -25 37.9    1.942    2.440   108.1    22.8    19.3
    2001 11 07    22 08.36   -25 49.0    2.025    2.404   100.0    24.0    19.4
    2001 11 17    22 19.06   -25 39.0    2.113    2.371    92.5    24.6    19.4
    2001 11 27    22 31.83   -25 09.7    2.201    2.341    85.6    24.8    19.5
    2001 12 07    22 46.37   -24 22.9    2.289    2.315    79.1    24.7    19.6
    2001 12 17    23 02.37   -23 20.3    2.375    2.292    73.2    24.3    19.6
    
    Timothy B. Spahr             (C) Copyright 2001 MPC           M.P.E.C. 2001-Q36
    

    Read MPEC 2001-Q35 Read MPEC 2001-Q37


    MPEC number:

    Enter an MPEC number in one of the following forms:

    • 1997-B01 (the full form)
    • J97B01 (the packed version of the full form)
    • B01 (the abbreviated form)